DW3765 Weather Reports


Display with metric or nautical units.
time (UTC)temp
F
wind
direction
speed
MPH
gust
MPH
rain 1hr
in
rain 24hr
in
rain mn
in
humidity
%
barometer
mb
20260902095147 76 138 0.0 0.0 0.00 0.00 0.00 83 1016.0
20260902094639 76 138 0.0 0.0 0.00 0.00 0.00 83 1016.0
20260902094202 76 138 0.0 0.0 0.00 0.00 0.00 82 1016.0
20260902093137 76 138 0.0 0.0 0.00 0.00 0.00 81 1016.0
20260902092134 77 138 0.0 0.0 0.00 0.00 0.00 80 1016.1
20260902091647 77 138 0.0 0.0 0.00 0.00 0.00 80 1016.2
20260902090626 77 138 0.0 4.0 0.00 0.00 0.00 80 1016.1
20260902090230 77 138 1.0 4.0 0.00 0.00 0.00 80 1016.1
20260902085722 77 137 2.0 4.0 0.00 0.00 0.00 79 1016.1
20260902085141 77 137 2.0 5.0 0.00 0.00 0.00 79 1016.1
20260902084654 77 134 0.0 5.0 0.00 0.00 0.00 79 1016.2
20260902083646 78 138 3.0 4.0 0.00 0.00 0.00 78 1016.3
20260902083142 78 138 0.0 0.0 0.00 0.00 0.00 78 1016.2
20260902082655 78 138 0.0 2.0 0.00 0.00 0.00 78 1016.3
20260902082215 78 138 0.0 2.0 0.00 0.00 0.00 78 1016.3
20260902081624 78 138 0.0 2.0 0.00 0.00 0.00 77 1016.3
20260902081151 78 138 1.0 2.0 0.00 0.00 0.00 77 1016.3
20260902080705 78 138 1.0 5.0 0.00 0.00 0.00 77 1016.4
20260902080215 78 138 2.0 5.0 0.00 0.00 0.00 77 1016.4
20260902075634 78 148 2.0 6.0 0.00 0.00 0.00 77 1016.4
20260902075235 78 150 3.0 6.0 0.00 0.00 0.00 77 1016.4
20260902074623 78 128 2.0 5.0 0.00 0.00 0.00 77 1016.5
20260902074150 78 145 3.0 5.0 0.00 0.00 0.00 77 1016.5
20260902073645 79 148 3.0 5.0 0.00 0.00 0.00 76 1016.5
20260902073158 79 149 2.0 5.0 0.00 0.00 0.00 76 1016.4
20260902072623 79 148 2.0 5.0 0.00 0.00 0.00 75 1016.3
20260902072201 79 121 2.0 4.0 0.00 0.00 0.00 75 1016.3
20260902071650 80 121 2.0 2.0 0.00 0.00 0.00 74 1016.3
20260902071149 80 121 1.0 6.0 0.00 0.00 0.00 74 1016.4
20260902070145 80 145 3.0 7.0 0.00 0.00 0.00 73 1016.3
20260902065626 80 112 5.0 7.0 0.00 0.00 0.00 73 1016.3
20260902065151 80 109 4.0 8.0 0.00 0.00 0.00 73 1016.3
20260902064639 80 101 5.0 8.0 0.00 0.00 0.00 73 1016.3
20260902064138 80 121 4.0 6.0 0.00 0.00 0.00 73 1016.4
20260902063645 81 121 3.0 5.0 0.00 0.00 0.00 72 1016.5
20260902063139 81 142 3.0 6.0 0.00 0.00 0.00 72 1016.5
20260902062646 81 146 2.0 6.0 0.00 0.00 0.00 72 1016.4
20260902062130 81 135 3.0 6.0 0.00 0.00 0.00 71 1016.5
20260902061124 81 126 4.0 6.0 0.00 0.00 0.00 71 1016.4
20260902060651 81 121 2.0 5.0 0.00 0.00 0.00 71 1016.4
20260902060128 81 134 3.0 5.0 0.00 0.00 0.00 70 1016.3
20260902055635 81 132 3.0 6.0 0.00 0.00 0.00 70 1016.3
20260902055137 81 139 4.0 7.0 0.00 0.00 0.00 70 1016.3
20260902054645 82 95 5.0 7.0 0.00 0.00 0.00 70 1016.3
20260902054147 82 90 3.0 5.0 0.00 0.00 0.00 70 1016.2
20260902053625 82 139 2.0 5.0 0.00 0.00 0.00 70 1016.1
20260902053127 82 145 1.0 4.0 0.00 0.00 0.00 69 1016.2
20260902052635 82 145 1.0 3.0 0.00 0.00 0.00 69 1016.2
20260902052140 82 145 1.0 4.0 0.00 0.00 0.00 69 1016.2
20260902051638 83 145 1.0 4.0 0.00 0.00 0.00 69 1016.1
20260902051124 83 144 1.0 5.0 0.00 0.00 0.00 69 1016.1
20260902050653 83 144 3.0 6.0 0.00 0.00 0.00 68 1016.1
20260902050136 83 144 3.0 6.0 0.00 0.00 0.00 68 1016.1
20260902045629 83 136 4.0 7.0 0.00 0.00 0.00 68 1016.1
20260902045241 83 111 4.0 7.0 0.00 0.00 0.00 67 1016.1
20260902044710 83 121 2.0 7.0 0.00 0.00 0.00 67 1016.1
20260902044200 84 142 3.0 8.0 0.00 0.00 0.00 67 1016.0
20260902043657 84 115 4.0 8.0 0.00 0.00 0.00 67 1016.0
20260902043151 84 133 5.0 7.0 0.00 0.00 0.00 66 1015.9
20260902042650 84 136 4.0 7.0 0.00 0.00 0.00 66 1015.9
20260902041637 85 118 3.0 8.0 0.00 0.00 0.00 65 1015.8
20260902041134 85 160 5.0 9.0 0.00 0.00 0.00 64 1015.7
20260902040655 85 103 5.0 9.0 0.00 0.00 0.00 64 1015.8
20260902040129 85 116 5.0 11.0 0.00 0.00 0.00 63 1015.8
20260902035653 85 125 7.0 11.0 0.00 0.00 0.00 63 1015.7
20260902035204 86 125 6.0 11.0 0.00 0.00 0.00 62 1015.8
20260902034721 86 103 6.0 14.0 0.00 0.00 0.00 61 1015.7
20260902034140 86 140 5.0 9.0 0.00 0.00 0.00 60 1015.7
20260902033654 86 115 6.0 9.0 0.00 0.00 0.00 59 1015.7
20260902033210 87 101 5.0 8.0 0.00 0.00 0.00 58 1015.5
20260902032719 87 125 3.0 8.0 0.00 0.00 0.00 58 1015.5
20260902032130 87 115 5.0 8.0 0.00 0.00 0.00 57 1015.3
20260902031656 87 126 3.0 7.0 0.00 0.00 0.00 57 1015.2
20260902031208 87 117 5.0 10.0 0.00 0.00 0.00 57 1015.2
20260902030624 87 127 4.0 12.0 0.00 0.00 0.00 57 1015.1
20260902030147 87 75 5.0 10.0 0.00 0.00 0.00 57 1015.1
20260902025700 87 100 5.0 9.0 0.00 0.00 0.00 57 1015.0
20260902024628 87 80 6.0 9.0 0.00 0.00 0.00 57 1014.7
20260902024143 87 89 5.0 8.0 0.00 0.00 0.00 57 1014.7
20260902023704 88 76 5.0 9.0 0.00 0.00 0.00 57 1014.6
20260902023221 88 72 3.0 8.0 0.00 0.00 0.00 57 1014.5
20260902022629 88 116 4.0 8.0 0.00 0.00 0.00 57 1014.5
20260902022151 88 77 4.0 8.0 0.00 0.00 0.00 56 1014.4
20260902021707 88 89 4.0 8.0 0.00 0.00 0.00 56 1014.3
20260902021225 89 132 5.0 8.0 0.00 0.00 0.00 56 1014.2
20260902020714 89 82 3.0 8.0 0.00 0.00 0.00 56 1014.2
20260902015645 89 84 4.0 7.0 0.00 0.00 0.00 55 1014.0
20260902015153 89 78 4.0 8.0 0.00 0.00 0.00 55 1014.0
20260902014651 89 80 5.0 8.0 0.00 0.00 0.00 54 1013.8
20260902014233 89 92 5.0 7.0 0.00 0.00 0.00 54 1013.8
20260902013709 89 79 4.0 6.0 0.00 0.00 0.00 54 1013.8
20260902013204 90 80 4.0 6.0 0.00 0.00 0.00 53 1013.8
20260902012711 90 84 4.0 7.0 0.00 0.00 0.00 53 1013.9
20260902012204 90 88 4.0 7.0 0.00 0.00 0.00 52 1013.7
20260902011700 90 64 4.0 7.0 0.00 0.00 0.00 52 1013.6
20260902011208 91 82 4.0 6.0 0.00 0.00 0.00 51 1013.5
20260902010708 91 88 4.0 6.0 0.00 0.00 0.00 50 1013.5
20260902010222 92 80 4.0 7.0 0.00 0.00 0.00 49 1013.5
20260902005629 92 81 4.0 6.0 0.00 0.00 0.00 48 1013.5
20260902005157 93 80 3.0 4.0 0.00 0.00 0.00 47 1013.4
20260902004647 93 80 2.0 4.0 0.00 0.00 0.00 46 1013.3
20260902003637 94 80 2.0 5.0 0.00 0.00 0.00 46 1013.4
20260902003156 94 77 3.0 5.0 0.00 0.00 0.00 45 1013.5
20260902002718 94 74 3.0 6.0 0.00 0.00 0.00 45 1013.5
20260902002131 94 84 3.0 9.0 0.00 0.00 0.00 44 1013.4
20260902001647 95 74 5.0 9.0 0.00 0.00 0.00 43 1013.5
20260902000636 95 95 3.0 7.0 0.00 0.00 0.00 43 1013.5
20260902000152 95 92 3.0 7.0 0.00 0.00 0.00 43 1013.5
20260901235720 96 85 4.0 8.0 0.00 0.00 0.00 43 1013.5
20260901235215 96 105 5.0 10.0 0.00 0.00 0.00 43 1013.5
20260901234709 96 129 5.0 10.0 0.00 0.00 0.00 42 1013.4
20260901234124 96 132 4.0 9.0 0.00 0.00 0.00 42 1013.4
20260901233639 96 47 3.0 7.0 0.00 0.00 0.00 42 1013.4
20260901233203 97 90 1.0 7.0 0.00 0.00 0.00 41 1013.5
20260901232716 97 83 4.0 8.0 0.00 0.00 0.00 41 1013.5
20260901232128 97 114 4.0 7.0 0.00 0.00 0.00 39 1013.4
20260901231652 97 126 4.0 7.0 0.00 0.00 0.00 40 1013.5
20260901231148 97 205 2.0 7.0 0.00 0.00 0.00 40 1013.4
20260901230142 97 67 2.0 6.0 0.00 0.00 0.00 39 1013.4
20260901225656 97 127 1.0 6.0 0.00 0.00 0.00 39 1013.5
20260901224641 97 138 0.0 5.0 0.00 0.00 0.00 41 1013.6
20260901224156 97 138 3.0 5.0 0.00 0.00 0.00 40 1013.7
20260901223720 96 78 1.0 9.0 0.00 0.00 0.00 40 1013.7
20260901223131 96 78 5.0 9.0 0.00 0.00 0.00 41 1013.6
20260901222643 97 60 3.0 8.0 0.00 0.00 0.00 40 1013.6
20260901221634 97 201 1.0 6.0 0.00 0.00 0.00 41 1013.5
20260901221152 97 157 3.0 10.0 0.00 0.00 0.00 41 1013.6
20260901220710 97 230 5.0 10.0 0.00 0.00 0.00 42 1013.6
20260901220207 97 144 2.0 8.0 0.00 0.00 0.00 42 1013.7
20260901215720 97 151 5.0 8.0 0.00 0.00 0.00 42 1013.7
20260901215216 97 140 2.0 7.0 0.00 0.00 0.00 42 1013.7
20260901214635 97 160 4.0 7.0 0.00 0.00 0.00 41 1013.8
20260901214134 97 111 2.0 9.0 0.00 0.00 0.00 42 1013.7
20260901213642 97 100 4.0 10.0 0.00 0.00 0.00 42 1013.9
20260901213206 97 161 3.0 10.0 0.00 0.00 0.00 41 1013.9
20260901212657 97 56 5.0 8.0 0.00 0.00 0.00 41 1013.9
20260901212158 97 218 1.0 9.0 0.00 0.00 0.00 42 1014.0
20260901211655 96 81 5.0 9.0 0.00 0.00 0.00 42 1014.1
20260901211202 96 186 2.0 6.0 0.00 0.00 0.00 42 1014.1
20260901210634 96 5 1.0 8.0 0.00 0.00 0.00 42 1014.2
20260901210158 95 104 5.0 8.0 0.00 0.00 0.00 43 1014.2
20260901205712 95 98 2.0 9.0 0.00 0.00 0.00 44 1014.2
20260901205215 95 86 6.0 11.0 0.00 0.00 0.00 42 1014.4
20260901204709 95 88 3.0 11.0 0.00 0.00 0.00 44 1014.5
20260901203627 96 67 3.0 10.0 0.00 0.00 0.00 43 1014.5
20260901203144 96 105 4.0 9.0 0.00 0.00 0.00 45 1014.6
20260901202641 96 234 4.0 9.0 0.00 0.00 0.00 42 1014.7
20260901202205 95 205 1.0 6.0 0.00 0.00 0.00 44 1014.8
20260901201720 95 38 0.0 5.0 0.00 0.00 0.00 42 1015.0
20260901201132 95 149 0.0 8.0 0.00 0.00 0.00 42 1015.2
20260901200653 95 117 5.0 10.0 0.00 0.00 0.00 42 1015.2
20260901200146 95 178 5.0 10.0 0.00 0.00 0.00 42 1015.3
20260901195648 95 84 5.0 10.0 0.00 0.00 0.00 43 1015.3
20260901195200 94 261 2.0 11.0 0.00 0.00 0.00 44 1015.4
20260901194656 94 189 2.0 11.0 0.00 0.00 0.00 45 1015.4
20260901194215 94 173 0.0 11.0 0.00 0.00 0.00 45 1015.4
20260901193631 94 165 0.0 11.0 0.00 0.00 0.00 46 1015.5
20260901193153 94 181 4.0 12.0 0.00 0.00 0.00 46 1015.7
20260901192714 95 175 2.0 9.0 0.00 0.00 0.00 45 1015.6
20260901192214 95 207 0.0 9.0 0.00 0.00 0.00 47 1015.8
20260901191625 94 247 5.0 9.0 0.00 0.00 0.00 45 1015.8
20260901191141 94 188 1.0 6.0 0.00 0.00 0.00 45 1015.9
20260901190709 94 260 2.0 9.0 0.00 0.00 0.00 45 1015.9
20260901190218 94 184 2.0 10.0 0.00 0.00 0.00 48 1016.1
20260901185627 93 163 4.0 10.0 0.00 0.00 0.00 47 1016.2
20260901185151 93 189 3.0 9.0 0.00 0.00 0.00 47 1016.3
20260901184703 93 217 1.0 9.0 0.00 0.00 0.00 48 1016.4
20260901184142 93 254 0.0 7.0 0.00 0.00 0.00 47 1016.5
20260901183650 93 172 2.0 6.0 0.00 0.00 0.00 45 1016.5
20260901183145 93 172 3.0 11.0 0.00 0.00 0.00 45 1016.6
20260901182642 93 159 6.0 11.0 0.00 0.00 0.00 46 1016.6
20260901182141 92 121 2.0 10.0 0.00 0.00 0.00 47 1016.6
20260901181703 92 191 2.0 8.0 0.00 0.00 0.00 47 1016.7
20260901181203 92 155 1.0 8.0 0.00 0.00 0.00 49 1016.9
20260901180703 92 193 2.0 8.0 0.00 0.00 0.00 48 1016.9
20260901180211 92 191 5.0 9.0 0.00 0.00 0.00 48 1017.1
20260901175628 91 114 4.0 11.0 0.00 0.00 0.00 47 1017.1
20260901175141 91 162 5.0 11.0 0.00 0.00 0.00 49 1017.2
20260901174653 91 294 0.0 5.0 0.00 0.00 0.00 50 1017.3
20260901174126 91 68 1.0 9.0 0.00 0.00 0.00 49 1017.3
20260901173649 91 126 4.0 9.0 0.00 0.00 0.00 49 1017.5
20260901173145 91 134 5.0 9.0 0.00 0.00 0.00 49 1017.5
20260901172639 91 190 3.0 7.0 0.00 0.00 0.00 50 1017.5
20260901172153 91 126 0.0 1.0 0.00 0.00 0.00 52 1017.5
20260901171654 91 127 0.0 8.0 0.00 0.00 0.00 52 1017.6
20260901171207 91 162 2.0 8.0 0.00 0.00 0.00 52 1017.6
20260901170707 91 128 5.0 8.0 0.00 0.00 0.00 52 1017.6
20260901170219 91 182 1.0 6.0 0.00 0.00 0.00 53 1017.7
20260901165714 90 88 1.0 7.0 0.00 0.00 0.00 53 1017.7
20260901165223 90 207 2.0 7.0 0.00 0.00 0.00 54 1017.8
20260901164627 90 215 2.0 7.0 0.00 0.00 0.00 54 1017.8
20260901164146 89 168 2.0 7.0 0.00 0.00 0.00 54 1017.8
20260901163707 89 213 2.0 6.0 0.00 0.00 0.00 55 1017.9
20260901163222 89 184 2.0 7.0 0.00 0.00 0.00 55 1017.9
20260901162632 89 142 1.0 8.0 0.00 0.00 0.00 58 1018.0
20260901162156 89 125 2.0 6.0 0.00 0.00 0.00 57 1018.0
20260901161712 89 209 1.0 5.0 0.00 0.00 0.00 55 1018.0
20260901161129 88 177 0.0 4.0 0.00 0.00 0.00 56 1018.0
20260901160645 88 221 0.0 7.0 0.00 0.00 0.00 59 1018.1
20260901160214 88 134 4.0 7.0 0.00 0.00 0.00 55 1018.1
20260901155651 88 164 0.0 6.0 0.00 0.00 0.00 64 1018.1
20260901155203 87 192 1.0 6.0 0.00 0.00 0.00 63 1018.1
20260901154713 87 149 2.0 6.0 0.00 0.00 0.00 65 1018.1
20260901154158 87 189 0.0 6.0 0.00 0.00 0.00 66 1018.0
20260901153706 86 189 2.0 6.0 0.00 0.00 0.00 66 1018.0
20260901152637 86 94 2.0 4.0 0.00 0.00 0.00 68 1018.0
20260901152153 86 194 0.0 0.0 0.00 0.00 0.00 69 1017.9
20260901151142 85 195 0.0 0.0 0.00 0.00 0.00 71 1018.0
20260901150656 85 128 0.0 0.0 0.00 0.00 0.00 70 1018.0
20260901150135 85 140 0.0 0.0 0.00 0.00 0.00 71 1018.0
20260901145641 84 232 0.0 0.0 0.00 0.00 0.00 73 1018.0
20260901145155 84 133 0.0 0.0 0.00 0.00 0.00 73 1018.0
20260901144651 84 150 0.0 0.0 0.00 0.00 0.00 76 1018.1
20260901144151 83 228 0.0 0.0 0.00 0.00 0.00 76 1018.1
20260901143713 83 232 0.0 0.0 0.00 0.00 0.00 77 1018.1
20260901143151 83 232 0.0 0.0 0.00 0.00 0.00 77 1018.0
20260901142647 83 232 0.0 0.0 0.00 0.00 0.00 79 1018.0
20260901142140 83 232 0.0 0.0 0.00 0.00 0.00 80 1017.9
20260901141637 82 233 0.0 0.0 0.00 0.00 0.00 80 1017.9
20260901141150 82 233 0.0 0.0 0.00 0.00 0.00 82 1017.9
20260901140650 82 233 0.0 1.0 0.00 0.00 0.00 82 1018.0
20260901140144 81 233 0.0 1.0 0.00 0.00 0.00 83 1018.0
20260901135709 81 154 0.0 0.0 0.00 0.00 0.00 86 1018.0
20260901135220 81 154 0.0 0.0 0.00 0.00 0.00 87 1017.9
20260901134733 80 154 0.0 0.0 0.00 0.00 0.00 88 1017.9
20260901134215 79 154 0.0 0.0 0.00 0.00 0.00 90 1017.9
20260901133128 78 154 0.0 0.0 0.00 0.00 0.00 90 1017.9
20260901132645 78 154 0.0 0.0 0.00 0.00 0.00 90 1017.9
20260901131632 77 154 0.0 0.0 0.00 0.00 0.00 93 1017.7
20260901131145 77 154 0.0 0.0 0.00 0.00 0.00 93 1017.6
20260901130132 76 154 0.0 0.0 0.00 0.00 0.00 93 1017.6
20260901125646 76 154 0.0 0.0 0.00 0.00 0.00 93 1017.4
20260901124738 75 154 0.0 0.0 0.00 0.00 0.00 92 1017.4
20260901124124 75 154 0.0 0.0 0.00 0.00 0.00 92 1017.3
20260901123648 75 155 0.0 0.0 0.00 0.00 0.00 92 1017.1
20260901123146 75 155 0.0 0.0 0.00 0.00 0.00 92 1017.2
20260901122644 75 155 0.0 0.0 0.00 0.00 0.00 91 1017.2
20260901121636 75 155 0.0 0.0 0.00 0.00 0.00 91 1017.1
20260901121153 75 154 0.0 0.0 0.00 0.00 0.00 91 1017.0
20260901120147 76 154 0.0 0.0 0.00 0.00 0.00 90 1016.9
20260901115644 76 154 0.0 0.0 0.00 0.00 0.00 90 1016.9
20260901115201 76 155 0.0 0.0 0.00 0.00 0.00 90 1016.9
20260901114722 76 154 0.0 0.0 0.00 0.00 0.00 90 1017.0
20260901114137 76 154 0.0 0.0 0.00 0.00 0.00 90 1017.1
20260901113652 76 154 0.0 0.0 0.00 0.00 0.00 90 1017.2
20260901113207 76 155 0.0 0.0 0.00 0.00 0.00 90 1017.2
20260901112623 76 154 0.0 0.0 0.00 0.00 0.00 90 1017.1
20260901112136 77 155 0.0 0.0 0.00 0.00 0.00 90 1017.2
20260901111708 77 155 0.0 0.0 0.00 0.00 0.00 90 1017.2
20260901111217 77 155 0.0 0.0 0.00 0.00 0.00 90 1017.1
20260901110147 77 164 0.0 0.0 0.00 0.00 0.00 90 1017.0
20260901105703 77 165 0.0 0.0 0.00 0.00 0.00 90 1017.1
20260901105217 77 165 0.0 0.0 0.00 0.00 0.00 90 1017.2
20260901104713 77 165 0.0 0.0 0.00 0.00 0.00 90 1017.1
20260901104134 77 149 0.0 0.0 0.00 0.00 0.00 90 1017.2
20260901103634 77 150 0.0 0.0 0.00 0.00 0.00 90 1017.3
20260901103149 77 140 0.0 0.0 0.00 0.00 0.00 90 1017.3
20260901102712 77 165 0.0 0.0 0.00 0.00 0.00 90 1017.3
20260901102219 77 182 0.0 0.0 0.00 0.00 0.00 90 1017.1
20260901101714 77 182 0.0 0.0 0.00 0.00 0.00 90 1017.1
20260901101206 76 183 0.0 0.0 0.00 0.00 0.00 89 1017.0
20260901100701 76 183 0.0 0.0 0.00 0.00 0.00 89 1017.0
20260901095627 77 183 0.0 0.0 0.00 0.00 0.00 89 1017.0